Theta_e
318 317 317 316 317 318 321 320 325 328 327 328 324 326 325 324 328 326 326 325 325 326 327 326 326 329 329 332 333 333 334 335 337 336 338 337 334 334 331 328 327 323 320 318 316 312 310 317 324 328 328 329 328 327 325 320 322 327 329 330 330 330 326 326 331 330 326 322 320 318 315 315 315 317 316 315 315 314 314 313 312 311 314 319 324 326 323 321 319 319 318 317 314 317 323 323 321
317 317 317 315 318 319 321 323 330 335 333 328 324 326 323 322 326 328 329 325 327 329 329 328 327 330 329 330 330 332 335 334 333 334 336 335 335 333 329 328 326 322 319 318 316 312 310 315 322 327 328 328 327 327 326 321 322 324 326 329 328 328 324 322 327 327 324 324 320 317 318 318 318 319 318 320 319 316 316 316 315 315 315 317 323 326 325 324 322 321 320 318 316 321 324 322 321
317 317 316 316 320 319 321 323 330 333 327 325 330 329 321 324 330 328 327 325 329 329 329 328 328 329 329 332 332 333 336 334 335 335 336 335 334 332 329 327 325 321 319 318 316 313 310 310 318 325 326 326 327 327 327 324 323 324 326 328 328 327 326 323 322 321 321 320 314 315 319 319 320 319 318 319 320 319 320 321 320 320 319 318 321 324 324 324 323 322 322 320 317 319 321 321 322
317 316 316 318 321 323 327 327 333 332 324 325 328 328 324 327 330 323 324 328 329 327 327 329 331 330 331 337 334 334 336 335 335 335 335 334 332 330 327 327 326 321 319 318 316 314 310 308 312 320 324 326 327 326 327 323 320 321 325 327 328 327 327 328 323 318 316 317 318 318 316 318 320 318 317 319 320 321 322 322 321 320 319 317 319 322 324 322 319 320 322 322 319 319 322 322 322
317 316 317 319 322 325 327 326 330 328 325 330 326 328 331 329 326 321 323 328 325 324 328 330 334 331 331 335 333 335 337 335 335 334 334 334 331 327 326 327 326 321 320 318 316 315 311 309 309 317 322 326 328 326 325 323 320 316 320 324 325 323 325 327 323 316 314 317 320 319 319 320 318 319 323 323 322 321 318 319 318 317 317 316 315 318 320 319 319 324 327 326 322 320 322 322 321
316 316 317 318 321 321 326 324 326 329 331 332 327 330 329 324 324 322 322 323 322 324 327 329 331 330 332 334 333 335 335 335 334 333 333 333 330 327 327 327 326 322 320 318 316 315 312 309 309 315 321 327 329 326 325 324 321 316 320 323 319 320 323 323 320 316 315 316 318 320 325 323 318 321 325 324 323 321 317 317 316 318 319 317 316 318 321 319 321 326 327 327 322 319 320 320 320
315 317 317 319 321 320 329 328 329 336 328 323 326 330 324 321 322 321 322 323 323 324 327 327 326 329 334 334 334 335 335 335 333 333 333 333 330 329 329 327 326 323 320 318 316 315 313 310 310 314 320 327 328 327 326 324 320 315 318 321 315 318 322 323 325 323 320 320 320 321 323 321 319 320 321 321 321 320 317 317 317 319 319 318 318 322 323 321 320 322 322 321 319 317 317 318 320
317 319 318 322 324 323 331 326 329 335 321 315 321 324 322 322 322 321 323 323 324 325 327 326 324 331 334 332 334 335 334 334 333 334 333 332 332 331 330 327 326 323 320 319 316 315 313 310 310 313 318 325 328 328 326 323 321 316 314 316 314 318 322 324 327 328 325 320 318 317 318 319 318 318 318 319 318 318 317 317 318 318 318 318 318 320 321 320 320 320 318 317 316 316 317 318 319
317 320 319 323 325 327 333 326 324 326 320 318 319 321 322 323 322 322 322 322 324 326 327 325 322 330 333 331 334 334 334 334 334 335 333 332 333 332 330 327 326 324 321 318 316 315 313 311 309 312 316 320 326 327 325 321 320 316 311 311 312 317 322 323 324 326 323 316 313 313 316 318 317 319 320 319 318 318 318 319 318 316 315 314 315 317 317 318 318 317 316 316 315 315 316 317 317
318 321 318 324 328 323 326 329 328 321 318 320 320 322 323 322 322 321 322 322 324 325 325 324 323 328 332 333 333 334 334 334 334 335 334 333 333 332 330 327 326 325 321 318 316 315 313 311 310 312 314 316 322 325 323 319 315 312 309 309 310 314 317 320 321 321 319 313 310 313 316 317 319 322 320 319 318 317 317 316 315 313 313 312 313 314 315 315 316 315 315 315 314 315 315 316 315
319 320 318 328 331 321 323 331 336 329 319 319 320 321 322 322 321 319 321 322 322 323 324 325 329 330 331 333 333 333 333 334 334 334 334 333 333 332 330 327 327 326 321 319 316 316 313 311 311 312 313 314 316 320 319 315 311 310 309 309 310 311 313 317 319 318 316 311 310 315 317 317 320 321 319 320 319 318 318 316 315 315 314 314 313 313 314 314 314 314 314 314 314 314 314 314 314
318 321 330 335 329 324 327 330 335 332 322 322 323 321 323 321 319 319 320 322 321 323 324 325 329 330 332 333 333 334 333 334 334 333 333 332 331 330 329 327 328 326 321 319 317 316 314 311 311 312 313 312 312 313 313 312 310 309 309 310 309 309 311 315 316 314 312 309 310 316 317 317 320 319 320 321 320 321 320 319 319 318 317 316 315 314 314 313 314 313 313 313 314 314 314 314 314
318 323 332 330 325 327 327 325 329 328 323 324 323 321 323 319 318 319 320 321 321 323 324 324 325 328 333 334 333 334 334 334 334 332 331 331 329 329 329 329 330 327 322 319 317 317 315 312 311 312 312 312 312 312 311 311 309 309 309 309 309 309 309 311 311 310 309 310 312 314 316 317 319 319 320 321 321 322 321 321 320 320 319 319 318 317 315 315 315 314 314 314 315 315 315 315 315
319 322 327 324 322 327 327 325 323 323 325 324 320 321 323 319 318 318 321 322 321 322 323 324 323 326 333 333 334 335 335 335 334 333 331 331 329 329 330 331 332 329 325 322 318 318 317 313 311 311 312 312 312 312 312 311 310 309 309 309 309 309 309 309 309 308 309 312 314 315 316 318 319 319 320 320 321 321 321 322 321 321 321 320 321 320 319 318 318 317 317 317 317 317 318 318 318
320 320 328 329 324 324 325 323 321 323 327 323 318 320 321 318 318 318 321 322 321 321 322 326 325 326 331 333 335 333 334 335 334 334 332 331 331 331 331 331 333 332 328 324 320 319 319 316 312 311 311 311 312 313 313 311 311 310 309 309 309 309 309 308 308 309 310 312 314 315 316 317 319 318 318 319 319 320 321 321 321 322 321 321 321 321 321 321 320 320 319 319 319 319 319 319 320
320 318 326 330 323 323 322 319 320 324 323 319 317 319 319 318 318 319 320 321 322 322 325 328 326 325 324 325 325 326 333 336 334 335 333 332 332 333 333 331 333 334 331 328 322 320 320 319 315 313 312 311 312 313 314 313 312 311 310 310 309 309 309 308 308 308 310 312 314 315 316 317 317 318 318 318 318 319 319 320 320 321 321 321 321 322 321 321 321 321 321 320 320 320 320 320 320
318 320 327 329 324 324 324 321 320 324 323 317 315 318 318 317 318 319 319 319 323 326 327 328 327 326 324 322 320 325 333 335 334 334 333 334 333 333 334 332 332 334 334 331 325 321 320 320 319 316 314 312 312 313 314 314 314 313 312 312 311 310 309 309 308 308 310 312 314 316 317 317 317 317 317 318 317 318 318 319 320 320 321 321 322 322 321 322 322 322 321 321 321 321 321 321 321
318 325 327 326 328 327 326 324 317 319 322 316 315 318 318 318 318 318 319 320 323 326 325 326 328 326 326 324 323 328 333 335 334 334 334 334 334 334 334 332 332 333 333 333 328 323 320 320 321 320 317 315 314 314 314 314 315 315 315 315 313 312 310 309 308 308 309 311 314 316 317 317 318 318 318 318 318 318 319 320 320 321 321 321 321 321 321 321 321 322 321 321 322 321 321 321 321
321 325 323 327 333 326 320 319 314 316 319 316 316 318 317 318 318 318 320 322 324 326 326 326 328 326 326 325 325 329 333 334 334 334 334 334 333 334 334 333 331 331 332 333 330 325 321 320 321 321 320 318 317 316 315 315 315 315 316 316 315 314 313 312 310 310 310 311 313 315 317 318 318 318 318 319 319 319 320 320 320 320 321 321 321 321 321 321 321 321 321 321 321 321 321 321 321
318 318 322 331 327 319 317 316 315 316 317 316 316 317 317 317 319 319 320 322 323 324 327 328 327 325 325 326 326 328 332 334 334 333 334 333 333 332 333 332 330 329 330 331 330 326 323 320 320 321 321 321 320 319 317 316 316 315 315 316 316 316 316 315 314 312 312 312 313 314 316 317 318 318 319 319 319 320 320 320 320 320 320 320 320 320 320 321 320 320 320 321 320 321 321 321 321
315 316 322 325 316 316 319 316 316 315 315 316 315 316 316 316 318 318 319 322 322 320 322 324 324 322 324 327 327 327 331 333 333 333 333 333 332 332 332 331 329 328 328 331 331 327 324 321 319 320 321 321 321 321 319 318 318 318 317 317 317 316 316 316 316 316 314 314 314 314 315 316 317 318 318 319 319 319 320 320 320 320 320 320 320 320 320 320 320 320 320 320 320 320 320 320 320
314 316 318 317 313 315 317 315 315 315 315 316 315 316 317 316 317 317 319 322 321 319 319 318 318 319 321 325 326 326 329 332 333 333 333 332 331 331 331 331 330 329 328 330 330 327 325 322 319 318 320 320 321 321 321 320 319 320 320 320 319 318 318 317 317 317 317 316 316 316 316 316 317 318 318 318 319 319 319 319 320 320 320 320 320 319 320 319 319 320 320 320 320 320 320 320 320
315 316 314 314 314 314 315 315 315 314 315 315 314 317 317 316 316 317 318 320 319 318 319 318 317 317 318 321 324 325 326 328 330 330 331 330 330 330 329 330 330 329 328 327 329 327 325 323 321 319 319 319 320 321 321 321 320 320 321 321 322 321 321 320 319 319 318 317 317 317 317 317 317 318 318 318 318 319 319 319 319 320 319 319 319 319 319 319 319 319 319 319 320 320 319 320 320
314 315 313 313 313 313 316 315 315 314 315 316 316 317 316 316 317 316 317 319 318 318 318 319 318 317 318 321 322 321 321 322 325 326 327 327 327 327 326 327 327 327 327 326 327 327 325 324 322 320 319 319 319 321 322 322 321 320 320 321 321 321 322 322 322 322 321 320 319 319 318 318 318 318 318 318 319 319 319 319 319 319 319 319 318 319 319 319 319 319 319 320 320 320 320 319 320
312 313 311 310 311 312 314 315 314 314 315 315 315 316 316 315 315 314 316 318 318 317 318 319 319 319 319 321 321 320 319 319 322 324 326 326 326 327 327 326 326 327 327 325 325 326 325 324 323 321 321 321 320 321 323 325 324 323 320 320 320 320 321 321 321 322 322 321 321 321 320 319 319 319 319 319 319 319 319 319 319 319 319 319 319 319 319 319 320 320 320 320 320 320 320 320 320
310 310 310 309 310 311 313 313 314 314 315 315 315 315 315 314 315 315 317 318 317 317 317 318 319 320 320 321 320 320 320 319 321 323 325 326 327 328 327 327 327 327 326 324 324 324 325 324 322 322 322 324 323 322 324 326 327 326 323 320 320 320 320 321 321 321 321 321 321 321 321 321 321 321 321 321 321 321 321 321 321 322 322 322 322 321 321 321 322 322 322 322 322 322 322 321 322
310 310 310 309 311 311 312 313 313 314 314 315 316 315 314 313 314 316 317 317 317 316 316 317 318 319 320 321 321 321 320 319 319 321 324 326 327 326 326 326 327 326 325 325 323 323 324 324 322 321 321 324 325 324 324 325 326 326 325 324 322 321 321 321 320 320 321 320 321 321 321 321 321 322 322 322 322 323 323 323 324 324 324 324 324 324 324 323 324 324 324 324 324 324 324 323 324
312 312 311 310 311 311 312 312 313 314 314 314 315 314 313 313 314 316 316 316 316 316 316 316 317 319 319 320 321 321 321 320 319 321 322 323 323 323 324 324 324 325 325 324 323 323 323 323 323 321 320 322 324 325 324 324 324 324 325 324 323 322 322 322 321 321 320 320 321 321 321 322 322 322 322 322 322 323 323 323 324 324 324 325 325 325 325 325 325 325 325 325 325 325 325 325 325
314 312 311 311 311 312 313 312 313 314 314 314 314 315 315 314 315 315 315 316 316 315 316 316 317 318 319 320 321 321 321 321 322 321 320 319 319 320 321 321 322 322 323 323 323 323 323 323 322 322 321 321 322 322 323 323 323 322 322 322 322 322 322 321 321 321 321 321 321 320 321 321 322 322 322 323 323 323 323 324 324 324 324 325 325 325 325 325 325 325 325 325 325 325 325 325 325
315 311 310 311 313 316 314 311 313 314 314 314 314 318 320 317 315 315 315 315 315 316 317 317 317 318 319 321 321 321 321 322 322 320 318 318 319 319 319 320 321 321 322 323 323 323 322 322 322 322 322 322 322 322 322 322 322 322 322 322 322 322 322 322 321 321 321 321 321 321 321 321 322 322 322 323 323 323 323 324 324 324 324 325 325 325 325 325 325 325 325 325 325 325 325 325 325
314 311 311 313 314 320 318 311 312 314 313 313 314 316 319 317 314 314 315 314 315 317 318 317 318 319 319 320 321 321 320 320 319 317 318 318 318 318 318 319 320 321 322 322 322 322 322 322 322 322 322 321 322 322 322 322 322 322 322 322 322 322 322 322 322 321 321 321 321 321 321 321 321 322 322 322 323 323 323 324 324 324 324 325 325 325 325 325 326 326 326 325 325 325 325 325 325
315 315 316 315 314 320 321 311 311 315 313 312 313 316 317 315 313 313 314 313 315 317 317 317 317 318 319 320 320 320 319 319 318 318 318 318 318 317 317 317 319 320 320 321 321 322 322 322 322 322 321 321 321 320 320 320 321 321 322 322 321 322 322 322 321 321 321 321 321 320 320 320 320 321 322 322 322 323 323 323 324 324 324 325 325 325 325 325 325 325 325 325 325 325 324 324 324
316 315 315 316 314 317 318 312 310 312 312 312 313 316 318 315 312 312 313 312 315 318 318 316 316 317 318 318 319 319 319 319 318 318 317 317 317 316 316 316 317 318 319 319 320 321 321 321 322 322 321 320 320 320 320 319 320 321 321 322 322 321 321 321 321 321 321 321 321 320 320 319 319 319 320 322 322 322 323 323 324 324 324 324 324 324 323 323 323 323 324 324 324 323 323 322 322
318 313 312 315 315 314 316 315 312 310 312 314 313 314 317 315 311 311 312 312 314 317 318 317 317 317 317 317 318 318 318 318 317 317 316 315 315 315 315 315 315 317 318 319 319 319 320 319 320 320 320 320 320 320 320 320 320 321 321 322 322 322 321 320 320 321 320 320 320 319 320 319 319 319 320 322 322 321 323 323 324 324 324 323 323 322 322 321 321 322 323 322 322 321 321 321 321
318 313 312 313 314 314 315 316 313 311 313 314 315 314 314 315 312 311 311 311 313 316 316 317 317 317 317 317 317 317 318 318 316 316 315 314 314 314 315 315 315 316 317 318 318 319 319 319 319 320 320 320 320 320 321 321 322 322 322 323 323 322 320 320 320 319 319 319 319 319 320 320 320 320 321 322 323 322 323 323 323 323 323 323 322 322 321 321 322 322 321 321 321 321 322 321 321
315 313 313 313 315 314 314 317 314 311 314 314 315 315 313 314 313 311 311 311 312 314 314 315 316 317 318 318 317 317 317 316 315 314 314 314 314 313 314 314 315 315 316 316 317 318 319 319 320 320 319 319 321 322 322 322 323 323 323 322 322 320 318 319 318 318 318 318 318 319 319 319 320 321 322 323 324 324 323 322 322 322 322 322 322 322 321 321 321 321 320 320 321 322 321 321 321
312 311 311 311 313 313 313 317 314 309 313 315 314 314 314 314 314 312 310 311 310 311 311 312 314 315 317 318 317 316 316 315 314 314 314 314 314 313 313 314 314 315 315 316 317 317 317 317 318 318 318 320 322 321 321 320 320 321 320 319 317 317 317 317 316 316 316 316 317 318 318 318 318 320 322 324 325 325 324 323 323 323 323 322 322 323 322 322 322 322 320 319 320 321 321 320 320
311 311 311 310 311 311 311 314 314 310 312 315 314 313 313 312 313 311 308 310 310 310 311 311 312 313 315 317 316 315 315 314 314 314 314 314 314 314 313 313 314 314 315 316 316 316 316 316 317 317 318 320 321 319 319 319 318 317 317 316 315 316 316 316 315 315 316 317 317 317 317 317 317 318 320 322 324 324 324 323 324 323 322 323 323 323 323 323 323 322 320 320 322 323 323 322 321
312 312 311 311 311 312 312 313 315 312 311 316 315 313 313 312 312 310 307 309 311 311 312 312 312 312 313 315 315 315 315 314 314 314 314 314 314 313 314 314 313 314 314 314 315 315 316 316 317 317 318 319 318 317 318 317 316 316 316 317 316 316 316 316 316 317 317 317 317 317 317 318 318 317 318 319 321 322 323 324 324 323 323 322 323 322 322 322 321 321 321 322 324 325 325 324 324
314 314 311 311 312 313 314 313 313 312 311 315 315 314 315 313 313 312 309 309 311 313 313 313 312 312 313 315 315 315 314 314 314 313 314 313 314 314 314 314 314 314 314 314 315 315 316 316 316 317 317 316 316 315 315 316 317 319 320 320 319 319 318 318 318 318 317 317 317 317 317 318 318 317 319 321 321 322 323 324 323 324 324 323 323 323 322 322 321 323 323 324 325 326 326 326 325
314 314 311 311 311 312 314 313 313 312 312 312 313 315 316 315 315 314 312 310 309 311 311 311 312 313 314 314 313 314 314 314 314 314 314 313 314 313 313 314 314 314 314 314 314 314 315 315 315 316 316 315 315 314 315 317 319 321 322 323 321 320 318 318 318 317 316 315 316 316 316 317 317 318 320 322 323 323 323 323 322 323 324 324 323 321 321 322 323 324 325 325 327 327 327 325 322
314 313 312 310 310 311 312 314 313 313 315 314 313 315 319 322 320 315 314 312 310 311 309 310 312 313 313 313 314 314 314 314 314 314 314 314 314 314 314 314 314 314 313 313 314 314 314 314 314 315 315 316 315 315 316 317 319 320 321 321 319 317 316 316 315 315 315 315 316 317 318 319 319 319 320 321 322 322 323 323 322 324 325 326 325 321 321 323 324 325 326 328 328 327 326 323 320
313 314 313 311 311 312 313 313 313 316 319 315 312 315 320 323 321 318 315 313 313 312 309 309 311 312 312 313 314 314 315 314 314 314 314 314 314 314 314 314 313 313 313 313 313 314 314 314 314 314 314 315 315 315 316 317 319 319 319 318 317 316 315 314 314 315 316 316 317 318 319 320 320 320 320 320 320 321 323 323 323 326 326 326 325 321 323 327 327 327 327 327 328 326 324 321 321
313 315 315 313 313 314 314 313 315 317 317 314 311 313 317 317 317 318 314 312 314 312 310 309 309 311 313 313 315 315 315 315 315 315 315 314 314 314 314 314 313 313 313 313 313 313 314 314 314 314 314 314 314 315 316 317 318 318 318 318 317 317 316 315 316 317 317 318 319 319 320 320 321 321 320 320 319 320 322 322 323 326 325 325 323 320 324 328 326 325 324 325 327 324 321 321 324
314 315 316 316 316 316 315 314 315 315 314 316 316 313 314 318 321 320 313 312 315 314 313 311 308 311 313 314 316 316 315 316 315 315 315 315 315 314 314 313 313 313 313 313 313 313 313 313 313 314 314 314 314 314 315 316 317 317 318 319 318 317 316 317 318 318 318 319 319 320 321 321 320 320 319 319 319 320 320 319 322 325 324 325 323 319 320 323 322 322 323 325 325 321 320 323 324
313 316 318 319 322 321 316 315 314 312 313 316 318 314 313 320 326 321 313 313 315 315 315 311 308 311 313 313 315 316 316 316 315 316 316 315 315 315 314 313 313 313 314 313 313 313 313 313 314 313 314 314 314 314 315 315 317 318 319 319 318 318 318 319 320 319 318 318 319 320 321 321 320 320 319 318 319 321 320 319 322 324 321 320 319 316 317 318 318 319 321 322 321 318 318 320 319
311 316 317 318 324 323 319 320 316 312 314 316 319 317 312 317 324 319 314 315 316 315 314 312 309 310 312 312 314 314 315 315 314 315 315 315 315 315 314 314 314 313 313 314 313 313 314 313 314 314 314 314 314 314 315 315 317 318 318 319 319 319 320 321 321 320 318 318 319 320 320 320 320 319 319 318 318 319 318 318 319 319 316 316 316 315 315 315 315 316 316 317 316 315 315 317 319
312 317 317 316 322 321 319 324 318 313 317 316 317 316 312 314 319 318 315 316 315 314 314 315 311 309 312 312 313 313 313 313 314 314 314 315 315 315 315 314 314 313 313 314 314 314 314 314 314 314 314 314 314 315 315 316 316 317 318 319 320 320 321 322 322 320 319 319 320 320 320 320 319 318 317 317 317 316 316 316 316 315 315 315 314 313 313 313 313 314 314 314 314 315 316 318 319
313 316 317 316 320 320 319 320 317 315 316 312 312 313 312 313 315 315 315 313 313 311 310 312 310 310 313 313 313 313 314 314 313 314 314 314 315 315 315 314 314 314 313 313 314 314 314 314 314 314 314 314 314 315 315 316 316 317 319 320 321 322 323 324 323 320 319 321 321 321 321 320 319 318 317 316 316 315 315 315 315 314 314 313 313 313 313 313 313 313 313 313 314 315 315 315 315
312 313 315 316 317 318 317 317 316 317 317 312 310 311 314 315 314 316 315 312 312 309 307 309 310 310 312 313 313 313 314 315 314 314 313 313 314 314 315 315 314 314 314 313 314 314 314 314 314 314 314 315 315 315 315 316 317 318 319 321 322 323 324 324 322 320 321 322 321 321 321 320 319 318 316 316 315 315 314 314 314 313 313 313 313 313 313 313 313 313 312 312 312 312 312 312 312
312 314 315 316 318 319 319 318 318 319 319 314 309 312 319 320 316 316 311 308 310 310 309 310 310 311 312 312 313 313 313 315 314 314 314 313 314 314 314 314 314 314 314 313 314 314 315 314 315 315 315 315 315 315 316 316 317 318 320 322 323 324 325 323 321 321 322 322 322 322 321 320 319 317 315 315 314 314 314 313 313 313 313 313 313 313 313 313 313 313 312 312 312 312 311 311 311
314 316 315 315 318 319 318 318 317 316 317 315 310 314 321 319 315 312 308 307 309 309 309 310 310 311 311 311 313 313 313 314 314 314 314 314 314 314 314 314 314 314 314 314 314 314 315 315 315 315 315 315 315 315 315 316 317 319 321 322 323 324 323 322 321 322 322 323 323 323 321 319 317 316 315 314 314 314 313 313 313 313 313 313 313 313 313 312 312 312 312 312 312 312 311 311 310
315 314 314 314 315 315 315 315 314 311 313 315 313 314 318 316 314 315 315 313 311 310 309 308 309 311 311 312 312 313 313 314 314 314 313 314 314 314 315 315 315 315 315 315 315 314 315 316 316 316 315 314 314 314 315 316 318 321 322 322 322 321 321 320 321 322 322 324 323 321 319 317 316 315 314 314 313 313 313 313 313 313 313 313 312 312 312 312 312 311 312 311 311 311 310 310 309
315 314 314 313 312 316 318 315 314 312 312 316 316 314 316 317 316 319 321 316 314 314 311 307 308 311 312 312 312 313 314 314 314 314 313 314 314 314 314 315 315 315 315 316 316 315 316 316 316 316 315 314 313 313 314 315 318 320 320 320 319 318 319 320 321 321 321 321 319 318 317 316 315 314 314 313 313 313 313 313 313 313 312 312 312 311 311 311 311 310 310 310 309 309 309 308 307
312 313 313 314 314 316 316 314 315 314 311 317 319 314 313 316 318 319 317 315 317 316 314 313 310 310 312 313 313 313 314 314 314 314 314 313 314 313 314 314 313 314 314 314 315 315 316 316 316 315 314 314 313 313 312 314 316 317 317 316 317 318 319 319 320 319 318 318 317 316 316 315 314 314 313 313 313 313 313 313 312 312 311 311 311 310 310 310 310 309 309 309 308 307 306 305 304
310 311 311 314 316 315 315 315 317 316 312 316 319 316 316 318 319 320 314 313 316 313 314 316 310 308 312 313 313 313 314 314 314 314 314 313 313 313 313 312 313 312 312 312 313 313 314 314 314 314 313 313 312 312 312 312 313 313 314 316 317 318 317 317 316 316 316 316 315 315 314 314 313 313 313 313 313 313 312 312 311 311 311 310 310 310 309 309 309 309 308 308 306 305 304 302 301
312 314 312 312 313 314 316 315 317 318 315 316 316 316 324 325 318 316 314 313 315 312 313 314 308 308 311 311 312 314 314 314 314 313 313 313 313 313 312 312 312 312 312 311 311 311 311 312 312 312 312 312 312 311 311 311 311 312 314 315 315 315 314 313 313 314 314 315 314 314 314 313 313 313 313 313 313 312 312 311 310 310 310 310 309 309 309 309 309 308 306 305 303 302 301 300 299
313 315 314 312 312 314 315 314 315 316 315 318 315 312 321 328 318 314 314 313 311 309 309 309 307 309 310 310 311 313 314 314 313 313 313 313 313 313 312 312 311 311 311 310 310 310 310 311 311 311 311 311 311 310 310 310 311 312 313 312 312 311 311 312 312 313 314 314 314 313 313 313 313 313 313 312 312 311 311 310 310 310 310 309 309 309 309 308 306 305 303 301 300 300 299 298 298
Wind_Speed
2 3 3 2 3 2 4 5 2 2 4 2 2 1 2 3 2 2 2 0 1 4 7 10 12 13 8 8 10 8 6 3 4 3 4 11 17 16 16 16 13 12 10 8 7 7 9 12 14 14 12 11 9 8 10 12 15 19 20 15 12 11 12 16 16 15 14 14 14 14 14 14 14 14 14 14 14 14 14 15 14 14 14 14 15 15 14 13 13 13 13 13 15 16 16 14 15
3 3 2 1 3 2 2 4 2 3 5 2 3 2 2 2 2 4 5 2 5 9 18 20 18 17 13 13 11 8 7 3 3 8 15 21 20 17 16 15 13 12 10 8 8 7 9 12 14 13 11 12 9 9 11 12 14 16 19 16 13 11 10 14 14 14 14 14 14 13 13 13 14 14 14 14 14 15 15 15 14 14 14 14 15 15 15 15 14 16 15 13 16 18 15 14 15
3 3 2 1 2 3 1 4 2 2 4 1 4 3 1 1 5 6 6 9 16 19 19 17 14 12 9 8 5 4 3 2 9 19 23 23 21 20 18 15 14 12 9 8 7 7 7 9 13 13 11 11 9 9 12 12 13 14 16 15 14 12 11 13 13 13 13 13 13 12 12 13 14 14 14 14 14 15 14 15 14 14 14 14 15 15 15 14 15 16 15 13 16 17 15 14 15
2 2 1 1 1 3 3 3 2 3 1 2 3 4 2 4 7 5 8 18 20 14 9 8 8 8 6 6 6 6 5 8 18 24 25 23 21 22 20 17 15 12 10 8 7 7 7 8 11 12 11 10 8 8 11 11 13 13 14 14 13 13 12 13 12 12 13 13 13 12 12 13 13 14 14 14 14 14 14 14 14 14 14 14 14 14 14 14 16 16 14 13 14 16 15 14 14
3 2 1 0 1 2 3 2 2 3 2 3 1 4 4 5 7 6 12 17 13 5 4 7 5 6 9 7 5 4 7 14 21 23 24 23 20 22 20 17 15 13 10 8 7 7 7 7 10 12 12 12 9 7 8 10 12 12 13 13 12 13 13 13 12 13 14 13 13 13 13 13 14 15 15 14 14 14 14 14 14 14 14 14 14 14 14 15 17 16 15 13 13 14 14 13 13
3 1 1 2 3 2 2 1 0 1 4 5 3 5 5 7 9 11 11 10 7 6 6 8 9 9 9 7 5 9 12 14 20 23 24 24 22 21 20 18 16 13 10 8 7 6 7 8 10 12 13 14 12 9 8 9 11 11 12 11 12 13 13 12 12 13 13 13 13 14 13 13 14 15 15 14 14 14 15 14 14 14 14 14 14 14 14 15 16 15 14 12 11 13 13 13 12
3 0 1 3 4 3 3 2 3 3 4 6 4 5 7 9 12 13 10 7 5 6 8 12 15 12 7 6 8 10 9 11 20 22 23 24 22 20 19 18 16 14 11 9 7 7 7 8 10 11 13 14 12 11 9 9 10 11 12 10 12 13 12 13 13 12 12 13 13 13 13 13 14 14 14 15 14 14 14 13 13 14 14 14 14 14 14 14 14 13 12 11 10 11 12 12 12
2 1 2 4 2 4 4 1 3 3 3 4 4 7 13 15 16 13 8 6 3 5 12 16 14 8 3 5 7 7 6 12 18 19 22 22 21 19 18 18 16 15 11 9 8 7 7 8 10 11 12 13 13 11 9 8 9 10 11 11 12 12 12 13 13 12 12 12 12 13 13 13 14 14 15 15 14 13 13 13 13 13 14 14 14 14 13 13 13 12 11 10 10 11 11 11 11
2 1 2 4 2 2 2 2 4 3 3 4 4 9 17 19 17 13 7 4 5 10 16 15 8 5 5 5 8 8 9 14 16 18 21 20 20 19 18 18 17 15 12 10 8 7 8 8 10 11 10 12 13 11 9 8 8 10 10 11 11 11 12 13 13 12 12 12 12 12 12 13 14 15 15 15 15 14 14 14 14 14 14 14 13 13 13 13 12 11 10 10 10 10 10 10 10
2 1 2 3 2 1 3 3 3 2 4 4 3 9 16 17 14 10 7 6 11 14 14 11 6 8 11 8 9 11 12 14 16 18 18 18 19 19 18 17 16 15 13 11 9 8 9 9 11 11 9 10 12 12 10 9 8 10 10 11 10 10 12 13 12 11 12 13 13 12 12 14 14 15 15 15 16 16 16 15 15 15 14 14 13 13 12 12 11 10 9 9 9 9 9 9 9
1 2 3 4 3 1 2 3 4 4 4 3 1 8 14 16 10 6 7 9 12 12 13 9 6 14 13 8 10 12 14 13 16 18 17 18 19 19 18 17 16 14 12 11 10 9 9 10 12 12 10 9 10 10 10 9 9 10 11 11 10 11 11 11 12 11 12 13 13 13 13 14 14 15 16 16 16 16 16 16 16 15 14 14 13 12 11 11 10 10 9 8 8 8 9 8 9
1 2 3 4 2 3 3 2 4 5 5 2 3 8 14 14 7 6 9 10 12 10 13 10 10 17 9 4 10 14 16 15 15 16 17 19 19 18 17 16 16 15 12 11 10 10 9 11 12 12 11 9 9 8 9 10 10 10 11 11 11 11 11 11 12 12 13 13 13 13 13 14 15 15 15 15 15 15 15 15 15 14 14 13 12 12 11 10 10 9 9 9 9 9 9 9 9
1 1 4 3 3 3 3 2 4 4 4 2 4 8 14 13 7 11 13 11 12 10 10 10 15 16 6 4 11 17 19 17 17 16 17 19 19 18 16 17 16 16 13 11 11 10 10 10 12 12 12 10 9 9 10 11 11 11 10 11 11 11 11 12 12 13 13 14 14 13 13 14 14 14 14 14 14 14 14 14 14 13 13 13 12 12 11 10 10 9 9 9 9 9 10 10 11
2 1 3 2 1 2 4 1 3 1 3 5 5 10 14 11 7 14 15 10 9 9 9 12 18 14 5 6 10 21 22 19 21 17 17 19 20 18 16 17 15 16 14 12 12 10 10 10 11 12 12 12 11 11 11 11 11 11 11 11 11 11 11 12 13 13 13 14 14 14 14 14 14 14 13 13 13 12 12 12 12 12 12 12 12 12 11 11 10 9 9 9 9 9 10 11 11
3 2 3 3 1 0 3 1 1 4 4 4 7 12 15 10 8 15 17 12 7 9 11 13 18 9 6 11 11 24 27 22 24 18 18 19 19 18 15 16 15 15 15 14 13 12 11 10 11 12 12 12 11 12 11 11 11 11 11 10 11 11 11 11 12 13 13 14 14 14 14 14 13 12 12 11 11 10 11 11 11 11 11 11 11 11 11 10 10 10 9 9 9 9 10 11 11
4 2 4 3 1 2 3 2 2 3 5 4 8 12 12 8 10 15 14 12 9 13 15 14 19 7 7 15 8 21 30 25 25 21 21 21 20 19 16 17 16 15 14 16 15 13 13 11 11 11 12 12 12 12 11 11 11 11 11 10 11 11 10 10 11 12 13 13 13 13 13 13 12 11 10 10 9 9 9 9 9 9 9 9 9 10 10 9 9 9 9 9 9 10 10 11 11
3 2 3 1 2 3 3 4 4 3 5 5 9 15 10 4 11 13 9 11 14 19 16 12 21 11 7 11 5 21 32 28 28 24 24 23 22 21 19 19 18 18 16 16 17 16 15 13 12 12 12 13 12 12 12 12 11 11 11 10 10 10 10 10 10 11 11 12 12 12 12 12 11 10 10 9 8 8 7 7 7 7 7 7 8 8 8 8 8 8 8 8 9 10 10 11 12
1 2 3 1 3 4 4 6 7 3 3 7 12 18 13 7 12 12 8 11 15 18 14 13 21 14 9 8 8 26 34 30 31 29 28 27 26 25 24 23 22 21 19 18 19 18 17 15 14 13 13 13 13 12 12 12 11 11 11 10 10 10 10 9 10 10 10 11 11 11 11 11 10 10 9 8 7 7 6 6 6 5 5 5 6 6 6 7 7 7 7 8 8 9 9 10 11
1 3 2 3 5 4 4 7 8 4 4 9 14 18 16 14 18 16 8 9 13 12 10 13 18 16 13 12 16 30 34 33 34 32 32 30 29 29 28 26 24 24 22 21 21 21 19 17 16 14 13 13 13 13 12 12 11 11 11 10 10 9 9 9 9 10 10 10 10 10 10 10 10 9 8 7 7 6 5 5 4 4 4 4 4 4 5 5 5 6 6 7 7 8 9 9 10
0 3 1 5 5 5 6 6 9 9 6 8 14 16 15 17 21 18 10 9 10 10 12 14 17 18 17 16 22 32 34 34 35 35 34 32 31 30 29 28 27 26 25 23 22 22 21 19 18 16 15 14 13 13 12 12 11 11 11 10 10 9 9 9 9 9 9 9 9 9 9 9 9 8 7 7 6 5 4 4 3 3 2 2 2 2 3 3 4 4 5 6 6 7 8 8 9
2 2 3 4 1 3 8 9 10 10 8 9 14 12 11 17 21 17 13 9 6 15 22 21 21 22 20 21 26 33 35 36 37 36 35 33 32 31 30 28 26 26 25 23 23 23 23 21 20 18 17 15 14 13 12 12 12 11 11 11 10 10 9 9 9 8 9 9 9 9 9 9 8 8 7 6 6 5 4 3 3 2 1 1 0 1 2 2 3 4 4 5 6 6 7 7 8
3 3 3 7 4 3 10 9 7 7 7 9 12 11 12 18 17 19 20 11 10 22 28 24 22 22 20 22 28 33 35 37 38 38 37 34 33 32 31 29 27 26 25 25 24 23 23 22 21 20 18 17 16 14 13 13 12 12 11 11 11 10 10 9 9 8 8 8 8 8 8 8 8 8 7 7 6 5 4 3 3 2 2 2 2 2 2 3 3 4 5 5 6 6 7 8 8
1 4 6 11 9 6 13 12 9 7 7 13 15 14 16 17 12 19 25 20 18 22 26 24 20 19 19 21 27 33 35 37 38 38 37 35 34 34 32 30 29 27 26 26 25 23 24 24 22 21 20 18 17 16 15 14 13 12 11 11 11 10 10 10 9 8 8 8 8 8 8 8 8 7 7 7 6 6 5 5 4 4 4 3 4 4 4 5 5 5 5 6 6 7 7 8 8
3 2 7 14 15 11 17 17 14 9 10 15 16 13 16 18 9 13 25 28 19 13 19 23 19 19 20 22 27 30 31 33 35 35 35 33 32 31 30 29 27 26 25 25 25 25 24 24 24 23 21 20 18 17 17 16 15 14 13 13 12 11 10 10 9 9 8 8 8 8 8 8 8 8 8 8 7 7 6 6 6 6 5 5 5 6 6 6 7 6 7 7 7 7 7 8 9
4 1 10 17 20 20 21 18 15 10 10 12 13 13 15 17 7 8 24 29 19 11 13 20 20 20 22 25 27 28 30 31 33 35 35 33 32 31 30 28 27 27 26 25 25 26 25 24 24 23 22 21 20 19 18 17 16 16 15 14 13 13 11 10 10 10 9 9 9 9 9 9 9 9 9 9 8 8 8 7 7 7 7 7 7 7 8 8 8 8 8 8 9 9 9 9 9
3 6 14 18 23 27 22 16 11 7 9 10 11 8 9 13 5 8 23 25 19 13 13 19 22 22 24 26 27 28 30 31 33 34 34 34 33 33 33 31 30 30 27 25 25 26 25 24 24 23 22 21 21 20 19 18 17 17 16 15 14 13 12 12 12 11 10 10 9 9 9 10 10 10 10 10 9 9 9 8 8 8 8 8 8 8 8 9 9 9 9 9 10 10 10 10 11
5 15 19 20 24 23 16 12 7 5 7 11 11 4 4 9 4 7 17 20 21 18 15 19 23 24 25 26 28 28 28 29 31 33 35 36 36 35 34 33 32 30 28 27 26 26 26 26 25 24 22 22 22 22 20 20 19 18 16 15 15 13 12 13 14 13 12 12 11 10 10 11 11 11 11 11 10 10 10 10 10 10 9 10 9 9 10 10 10 11 11 11 11 11 11 12 12
5 17 20 20 20 16 14 10 7 4 3 10 10 2 1 3 3 11 12 16 22 21 18 20 24 25 25 26 28 28 28 28 29 33 36 36 36 35 35 34 33 31 30 29 26 25 27 28 27 25 24 23 24 23 21 21 21 20 18 17 16 14 14 15 14 14 14 13 13 13 12 12 13 13 13 13 12 11 11 11 12 11 11 12 11 11 12 12 12 13 13 13 13 12 12 12 12
5 12 12 15 14 9 13 10 7 6 2 7 8 1 3 2 10 17 11 15 21 20 20 21 24 27 27 28 28 29 28 28 31 34 34 33 33 34 33 33 32 30 30 28 26 26 27 27 28 27 26 25 26 25 24 23 23 22 21 20 18 17 17 16 16 15 14 14 15 15 14 15 15 15 15 14 14 13 13 13 13 13 13 14 14 14 14 14 14 14 14 14 14 14 13 13 13
3 5 3 7 9 6 9 7 6 6 2 7 10 2 6 7 19 20 11 16 21 20 22 23 25 28 29 30 30 29 29 30 32 31 30 31 32 33 33 32 31 30 29 28 27 27 26 26 27 27 28 27 27 26 26 25 24 24 23 21 20 20 19 18 17 16 15 16 16 16 16 17 16 16 16 16 16 15 15 15 16 16 16 16 16 16 16 15 15 15 15 15 15 16 15 14 15
2 4 2 2 3 5 6 3 6 6 3 8 9 3 7 8 18 20 15 18 22 22 23 24 26 28 30 31 32 31 30 31 29 28 28 28 30 31 32 32 32 31 30 29 28 27 27 26 26 27 28 27 27 26 26 26 25 24 24 23 22 21 21 20 19 18 16 16 16 16 17 17 17 17 17 17 17 17 17 17 17 17 17 18 18 17 17 17 16 15 14 15 16 16 16 16 17
3 1 4 2 2 5 7 3 8 6 3 7 8 3 7 8 14 17 18 20 22 25 24 25 27 27 30 32 33 32 31 31 29 29 29 28 28 30 31 31 31 32 31 30 29 28 27 27 27 27 27 26 26 25 24 24 24 24 23 23 22 21 21 21 20 19 17 17 17 16 16 16 16 16 17 17 18 18 18 18 18 18 19 19 19 19 18 18 16 15 14 16 18 18 18 18 19
1 3 3 4 3 4 5 4 7 5 2 5 5 3 4 6 9 10 16 22 23 24 25 26 28 28 30 32 33 33 32 32 32 31 30 28 28 28 28 29 31 31 30 30 29 29 29 28 28 28 28 26 25 23 22 22 22 23 23 22 22 22 22 21 20 19 18 18 17 17 16 16 15 16 16 16 16 17 17 18 19 19 20 20 21 20 19 18 18 17 15 17 20 21 19 19 20
3 3 2 5 4 3 4 4 5 4 2 4 5 4 7 7 6 4 11 22 24 25 27 28 29 29 30 31 33 33 33 34 33 31 29 27 27 26 27 27 29 30 31 30 29 29 29 29 29 29 28 26 24 23 22 21 20 21 21 22 23 22 22 21 20 20 19 18 18 17 17 16 16 17 16 16 16 17 17 18 18 18 19 20 21 21 20 19 20 19 18 20 20 19 18 19 19
6 5 2 4 4 4 5 4 4 6 2 4 6 6 12 12 11 8 8 17 24 28 28 27 28 30 31 32 33 33 34 35 33 29 27 26 26 26 26 26 28 29 30 30 30 30 30 28 28 28 26 25 23 22 21 21 21 21 21 22 24 24 23 22 21 21 20 19 19 18 18 18 18 18 18 18 17 18 18 18 17 17 18 20 20 21 20 19 19 19 20 21 19 17 18 19 19
8 6 3 3 4 5 5 5 5 6 4 5 8 8 12 13 14 12 8 14 22 24 22 22 26 29 30 32 33 33 35 34 30 27 26 26 26 26 26 27 27 28 29 30 30 31 31 29 28 28 26 24 23 23 23 23 23 23 23 24 25 25 24 23 22 21 20 20 20 19 19 19 19 20 19 19 18 19 20 18 16 15 17 18 18 18 18 17 16 16 18 18 17 17 18 18 17
5 3 2 4 4 5 5 4 5 2 4 6 8 9 13 13 13 11 8 11 16 19 20 23 27 28 30 33 34 34 34 32 29 28 28 27 27 27 27 28 28 29 30 30 31 31 31 30 30 29 27 26 26 26 25 26 26 26 25 25 25 24 23 23 22 21 20 20 20 19 19 19 19 19 19 19 19 19 20 18 16 17 18 17 15 15 16 15 14 17 17 13 12 14 13 13 14
2 2 2 5 4 6 6 4 4 2 3 5 4 7 12 13 12 9 8 9 13 21 24 27 30 30 32 33 34 35 33 32 31 31 30 29 30 29 29 30 31 32 32 32 32 31 31 30 31 30 28 28 28 27 27 27 27 26 25 24 23 23 22 22 20 19 18 18 19 19 19 18 17 18 19 19 19 20 20 18 17 18 18 16 15 15 15 16 17 17 15 11 11 13 14 12 12
2 2 2 4 3 4 7 4 2 0 3 4 1 5 10 12 12 10 9 11 15 23 28 31 31 29 32 34 35 36 35 34 34 33 31 31 32 30 30 32 32 33 32 32 32 32 32 33 32 31 29 30 28 27 28 27 26 25 25 24 22 22 21 20 19 17 17 18 18 18 18 19 18 17 18 18 18 18 18 17 18 18 17 16 15 15 15 15 14 12 11 11 14 18 19 17 15
3 2 2 4 3 1 4 3 2 1 1 1 1 3 7 8 9 8 12 18 20 23 26 29 29 28 32 35 35 36 36 35 34 33 32 32 32 32 33 33 33 34 34 34 34 34 34 35 34 32 31 30 28 28 28 27 26 25 25 25 23 23 22 20 20 19 19 19 19 19 18 18 17 16 16 16 16 16 16 17 18 17 17 16 14 15 15 12 9 9 10 11 13 19 22 21 20
5 6 5 4 4 3 4 3 4 3 2 1 2 3 6 6 7 8 10 15 19 23 23 23 27 30 34 35 34 35 35 35 34 33 32 31 32 33 33 33 33 34 36 36 36 35 35 35 34 33 32 30 29 29 28 27 27 28 27 27 26 26 25 24 23 21 21 20 18 17 16 16 16 15 15 15 15 15 15 16 15 15 14 13 14 14 11 8 8 10 12 14 17 20 21 21 21
6 8 8 7 6 5 6 5 3 3 4 2 1 2 6 5 5 8 8 6 11 19 19 22 29 30 33 34 35 36 35 35 35 33 33 33 32 31 31 32 33 35 36 36 35 35 35 34 33 33 33 32 31 29 29 29 30 30 30 30 29 28 27 26 25 23 21 18 15 14 14 14 14 14 14 14 14 14 15 15 14 15 15 15 16 15 11 12 14 15 17 21 22 19 18 20 20
5 6 8 8 5 5 7 5 1 2 5 4 1 5 6 6 5 8 7 5 9 12 12 19 28 29 32 35 37 38 37 37 37 36 35 35 34 33 32 32 33 35 35 34 35 35 36 35 33 33 33 32 31 31 31 32 32 32 31 31 30 29 28 26 24 22 19 16 15 14 13 14 14 15 14 14 14 14 14 14 13 15 17 17 18 17 16 19 21 20 21 21 19 17 17 20 20
2 4 8 6 3 4 6 4 5 4 3 4 2 3 4 5 7 6 3 4 9 9 9 14 23 28 32 37 41 42 41 40 39 38 36 35 34 34 33 32 32 32 32 33 35 36 36 35 34 34 33 32 32 32 33 34 34 33 32 31 31 30 28 25 23 20 19 17 17 16 15 15 15 15 15 15 15 13 14 15 14 16 17 16 18 18 17 18 19 19 17 16 17 18 19 20 22
3 4 5 3 2 1 2 2 5 3 2 5 4 2 3 6 6 4 2 4 9 10 10 12 20 29 34 39 43 45 44 43 42 39 37 36 35 33 32 32 31 30 30 31 34 36 36 35 35 34 34 34 33 33 34 34 34 34 33 32 31 30 28 26 23 21 20 20 19 18 17 16 16 16 16 15 14 13 15 14 13 15 16 16 19 19 18 18 18 18 17 16 18 19 20 21 20
3 4 4 4 4 3 2 2 3 2 2 8 6 4 4 5 5 3 2 3 7 9 8 10 19 29 33 37 42 44 44 45 44 42 40 38 35 32 31 31 31 31 29 29 31 34 36 36 36 36 35 35 34 34 35 34 35 34 34 33 32 30 28 27 24 22 22 22 22 21 19 17 17 16 15 14 13 14 16 14 13 16 17 16 17 18 17 18 19 19 20 21 22 21 21 20 18
5 5 5 5 3 4 4 1 1 1 6 8 7 4 4 5 6 4 4 5 7 8 8 9 16 23 27 31 35 39 41 43 44 44 43 41 37 33 32 33 33 32 31 30 31 33 35 36 36 37 36 35 35 35 35 35 35 35 34 33 32 30 29 27 25 23 23 23 23 21 19 18 16 15 14 14 14 15 16 16 16 16 15 14 15 15 16 17 18 19 19 20 20 20 17 16 17
6 3 4 4 0 2 3 2 1 4 7 5 4 3 4 6 5 4 6 6 5 7 8 8 11 16 19 19 22 26 30 34 39 42 43 41 39 37 35 35 34 33 33 32 31 32 33 34 35 36 36 36 36 36 36 36 35 35 34 33 32 30 28 27 25 24 24 23 22 20 19 17 16 15 14 14 15 15 16 15 14 13 13 14 14 14 14 15 15 15 16 16 17 17 16 17 19
6 3 5 4 2 0 2 3 1 5 6 3 1 2 3 7 6 7 10 9 9 11 13 14 14 17 21 18 17 18 19 22 27 34 38 40 39 39 37 36 35 34 34 33 31 31 32 33 34 34 35 35 35 35 36 36 36 35 34 33 32 30 28 27 25 25 24 23 21 19 18 17 16 15 15 15 15 15 15 14 12 12 13 13 13 13 12 12 12 12 13 14 15 16 17 18 20
7 5 5 5 4 3 6 5 2 5 5 3 1 1 4 4 5 10 13 14 16 15 17 20 20 22 26 25 22 20 17 17 19 24 30 34 36 36 36 36 35 34 33 33 32 31 31 32 33 33 33 33 33 34 35 36 36 35 34 33 31 29 28 27 26 25 24 23 21 19 18 17 17 17 16 16 15 15 13 12 12 12 12 11 11 11 11 10 10 11 11 12 13 14 14 15 16
8 5 4 5 5 4 5 4 3 4 4 3 2 1 4 3 3 9 12 14 18 17 17 20 22 24 25 26 25 21 18 15 16 19 23 26 29 31 33 35 35 34 33 33 33 32 32 32 33 33 33 33 34 34 34 35 35 35 34 32 31 29 28 27 26 25 24 22 21 19 19 19 18 18 17 16 15 13 12 12 12 11 11 11 11 10 10 11 11 11 11 11 11 11 10 10 10
5 3 4 5 5 4 2 2 3 2 2 4 2 3 5 4 6 9 8 10 14 18 19 19 20 21 20 22 23 22 19 16 14 17 20 22 24 27 29 31 32 32 32 33 34 34 33 33 33 33 34 34 34 34 34 35 34 34 33 32 31 30 29 28 27 25 24 22 21 21 20 20 20 19 17 16 14 12 12 12 11 11 10 11 10 10 10 10 10 9 9 9 9 8 7 6 5
3 3 5 4 3 5 2 2 1 2 3 4 1 4 5 4 7 9 6 7 10 12 14 15 17 17 16 20 21 21 20 16 14 15 17 20 22 24 26 28 29 30 30 32 34 35 35 35 35 35 35 35 35 35 35 35 34 34 33 32 32 30 29 29 27 25 24 23 23 23 22 21 20 19 17 15 13 13 12 12 11 11 11 10 9 8 8 7 7 6 6 5 4 3 3 3 3
5 7 7 2 2 3 2 2 1 1 6 5 1 3 5 3 5 7 7 7 9 9 9 11 14 14 16 20 20 19 18 16 15 15 16 18 21 23 25 27 28 29 30 31 32 35 36 37 37 37 36 36 35 35 35 35 34 34 33 32 31 30 29 28 26 25 24 24 24 23 22 21 20 18 16 15 14 13 13 12 12 11 9 8 7 6 5 4 4 3 2 2 1 1 1 2 2
4 6 7 5 3 3 2 3 4 4 5 5 3 3 4 4 4 6 8 7 8 10 8 7 10 14 17 20 19 18 18 17 17 17 17 19 21 23 25 26 28 29 30 31 33 35 37 38 38 38 37 36 35 35 34 34 33 33 32 30 30 29 28 27 26 26 25 25 24 22 21 20 19 18 16 15 14 14 14 12 10 8 7 6 5 4 3 3 3 2 2 2 3 2 2 2 2
4 3 4 3 2 4 3 3 3 3 3 3 4 4 4 6 6 6 9 11 10 10 7 6 9 14 18 20 19 17 18 19 18 17 18 20 21 23 24 26 27 28 29 30 32 34 36 37 38 38 38 36 34 33 32 32 31 31 30 29 29 28 27 27 26 26 25 24 23 22 21 20 18 18 16 15 15 14 12 10 8 6 6 5 5 4 4 4 3 3 3 3 2 2 2 2 2
2 3 4 3 2 1 1 2 2 2 3 3 3 4 5 5 5 9 13 13 9 6 4 7 12 16 18 20 20 19 18 18 17 16 17 18 19 20 21 22 24 25 26 28 30 32 34 36 37 37 37 35 34 32 31 30 30 30 30 29 29 28 27 27 26 25 24 24 23 22 21 20 18 17 17 16 15 12 10 8 7 6 6 5 5 5 5 4 4 4 3 3 2 1 0 1 2
5 5 6 7 5 3 3 5 1 2 3 4 2 6 8 5 4 7 11 10 6 4 4 9 15 19 19 19 19 20 19 17 15 15 15 15 15 15 16 18 19 21 23 25 27 29 31 33 34 34 33 32 32 31 30 29 29 30 29 28 28 28 27 26 25 25 25 24 24 22 21 20 19 18 17 15 12 10 8 7 7 7 6 6 6 6 6 5 5 5 4 3 2 2 1 2 2
Wind_Direction
251 280 314 326 343 7 347 357 33 0 62 81 321 161 219 201 190 149 153 168 68 23 81 109 112 119 119 118 127 102 83 131 156 134 161 149 142 148 147 148 149 144 139 127 118 110 121 124 120 120 126 128 126 119 104 102 112 115 114 116 118 119 115 109 106 104 104 101 101 100 99 100 100 99 97 96 94 93 93 95 95 97 96 92 90 92 94 93 91 86 81 83 86 84 79 74 75
243 271 311 331 1 1 310 15 64 341 40 34 298 169 256 308 133 179 198 165 138 117 100 101 100 96 96 104 105 84 58 41 152 136 134 140 143 147 146 148 149 145 140 129 120 113 123 128 124 123 130 130 133 124 106 102 108 116 121 123 124 121 119 117 114 114 110 105 105 98 96 99 99 98 96 95 96 96 93 95 95 96 97 95 92 92 91 88 87 83 77 78 84 83 80 78 78
236 265 314 345 1 11 5 28 69 66 46 344 282 248 295 138 169 208 200 142 130 120 103 98 87 77 92 102 77 80 77 75 140 133 135 146 148 146 147 149 150 147 142 130 119 117 124 134 134 131 134 134 135 125 112 107 109 112 114 118 121 116 112 115 117 121 116 106 105 99 93 94 95 95 94 92 92 94 93 94 95 94 96 97 96 93 93 91 88 87 84 80 83 85 84 80 77
229 255 322 38 22 26 64 43 112 118 40 239 261 274 263 179 188 206 154 135 132 123 110 103 74 60 88 108 93 91 108 139 143 139 143 152 151 146 146 150 154 151 145 134 122 121 123 137 146 140 133 132 126 120 119 113 114 115 113 117 120 120 113 108 111 121 121 107 101 98 91 91 94 94 92 90 89 90 91 93 94 94 94 96 97 94 93 93 89 85 82 77 79 83 83 80 77
239 250 298 31 66 41 82 66 99 101 240 193 189 270 249 199 178 168 148 143 150 162 148 119 94 86 86 91 92 108 139 148 148 147 146 149 152 148 147 152 156 154 149 138 127 124 127 139 151 147 137 131 126 126 126 117 119 116 114 120 124 124 116 108 107 117 120 111 103 97 91 93 97 96 92 90 90 90 92 93 93 94 93 94 96 96 93 94 92 85 81 78 78 83 83 79 75
246 253 17 77 84 67 103 72 153 217 237 171 169 248 223 202 168 154 152 154 167 166 145 119 121 117 89 66 76 126 140 152 154 151 147 148 154 151 148 155 158 158 155 141 132 130 134 140 151 153 143 137 141 148 140 127 125 116 114 122 129 124 116 110 103 108 114 111 105 100 98 101 101 100 98 96 95 93 93 94 94 96 95 98 99 96 94 94 96 92 90 87 79 79 81 77 74
247 195 41 91 72 30 101 146 211 236 243 173 182 205 188 198 166 147 146 144 150 147 127 120 124 116 92 81 101 127 139 162 156 150 150 151 154 152 152 158 162 163 157 146 138 137 141 143 152 156 145 143 150 153 145 135 130 121 120 124 125 120 116 112 105 105 110 113 110 108 111 109 105 103 103 102 98 94 94 96 97 98 98 102 102 98 95 94 97 96 95 90 77 72 73 73 73
233 182 81 97 52 24 87 160 239 215 230 205 226 190 176 183 164 152 152 146 162 150 127 129 128 107 110 125 128 139 148 162 156 152 155 155 155 154 158 163 166 167 160 151 146 143 147 150 155 157 148 148 151 151 150 140 131 124 122 122 121 119 118 116 116 120 119 123 120 116 116 109 108 106 105 103 99 98 98 100 99 98 99 100 101 99 96 94 94 94 93 87 77 71 69 70 71
199 190 92 91 90 35 37 317 278 236 254 258 253 191 173 174 166 153 146 134 149 145 137 140 133 119 156 142 135 147 154 161 159 157 160 160 158 158 164 168 171 171 163 154 153 148 152 156 158 158 149 151 154 153 155 145 134 126 121 122 125 127 126 125 129 132 131 134 130 121 113 109 110 107 104 101 97 96 96 95 96 97 98 99 99 97 96 94 93 92 89 82 76 73 71 68 65
173 100 119 88 100 31 334 297 282 265 263 267 230 189 174 172 171 157 143 139 150 145 145 153 130 136 152 137 133 151 160 165 166 164 166 165 161 164 167 170 176 176 168 159 156 155 156 160 158 159 150 149 156 155 154 150 138 127 124 125 128 133 132 134 135 134 136 135 132 125 116 114 112 108 104 99 95 93 91 90 91 94 96 97 97 95 95 94 92 89 84 79 74 72 70 64 60
126 52 107 83 80 104 254 254 277 278 280 305 203 191 178 174 172 162 142 138 154 148 150 160 132 136 138 132 144 161 168 172 177 172 169 169 165 167 170 171 179 183 175 163 159 159 159 162 159 159 154 147 153 157 154 146 136 130 127 126 127 131 132 134 133 130 132 131 132 128 122 120 115 110 106 101 97 93 91 90 90 90 92 92 92 92 92 91 88 85 79 74 72 68 66 62 60
153 6 76 95 133 189 203 230 272 291 313 333 189 195 183 178 174 170 152 146 161 155 159 166 154 144 123 129 155 165 173 178 185 180 169 168 166 166 171 174 179 185 179 168 164 163 161 164 162 160 158 151 149 152 150 139 134 132 128 128 127 127 129 129 128 127 128 130 132 128 124 122 116 112 107 103 101 97 95 92 91 89 89 89 89 90 88 87 84 80 74 67 64 61 60 57 57
149 113 89 130 181 165 161 215 274 314 327 262 194 189 186 185 201 185 158 149 159 155 171 173 163 151 118 151 163 171 178 180 186 187 172 163 163 164 171 175 179 183 180 174 169 166 162 163 165 162 160 155 150 146 141 136 135 134 130 132 130 129 130 127 127 128 128 129 129 125 122 122 118 112 108 106 103 101 99 96 95 91 90 89 88 88 86 85 81 77 70 63 58 54 53 49 47
61 128 113 157 145 130 152 183 277 208 256 251 186 183 189 195 217 188 157 143 167 167 173 178 171 156 135 155 170 180 179 181 185 190 178 164 165 164 170 177 179 182 182 180 174 171 165 163 165 164 163 158 155 149 142 140 138 137 134 134 135 134 133 129 129 130 131 131 130 128 127 126 123 119 116 112 109 105 103 99 97 92 89 88 86 86 85 83 79 75 68 61 54 47 46 46 44
40 38 90 119 70 312 175 206 205 166 232 226 173 183 187 205 223 187 165 155 180 179 163 171 176 165 174 175 186 187 178 180 185 188 181 171 171 169 174 180 180 182 184 184 180 179 171 165 165 163 165 161 158 154 148 146 142 140 137 136 137 136 135 133 134 134 134 134 135 135 133 134 132 130 126 120 117 111 107 103 97 92 88 85 85 84 82 80 75 70 64 56 49 43 39 42 43
31 29 64 97 151 248 205 195 125 131 243 200 167 180 180 213 208 184 176 168 162 165 162 168 178 184 197 185 201 186 176 180 184 186 184 177 178 178 182 186 186 185 188 191 187 185 179 171 168 165 164 161 161 159 155 153 148 144 141 139 138 137 138 137 139 138 138 138 139 140 139 140 139 138 135 128 125 120 116 109 101 96 90 87 82 80 78 75 71 64 57 49 42 38 33 33 35
22 37 64 84 183 214 202 177 166 168 232 203 172 176 169 198 193 182 179 175 160 161 169 176 183 198 207 195 212 178 175 180 182 185 185 183 184 184 188 190 192 191 192 196 193 190 187 181 174 170 167 162 163 163 161 161 155 151 146 144 142 140 141 140 143 142 143 144 144 146 145 145 144 143 141 137 133 129 125 114 107 101 93 89 80 77 74 69 66 59 52 43 37 32 28 26 24
34 89 104 217 189 195 191 177 192 178 189 197 186 179 173 175 181 176 160 167 161 165 185 188 189 203 207 199 182 175 176 179 183 185 186 188 189 188 191 194 196 196 195 197 197 195 192 189 184 178 174 167 166 166 166 166 162 158 152 150 148 145 146 145 147 148 149 150 151 152 150 150 149 148 146 143 141 136 131 120 111 103 95 91 81 76 71 66 60 52 46 38 31 26 22 19 17
119 116 125 228 202 210 209 179 189 200 206 194 188 184 186 187 176 171 163 169 163 165 194 192 193 203 195 185 175 176 178 180 185 188 190 192 193 192 194 196 198 199 199 199 199 198 196 195 192 186 182 176 172 172 171 171 168 163 158 158 157 154 154 154 155 156 157 157 158 159 157 158 155 155 154 150 149 144 139 130 119 110 102 95 84 76 65 59 51 43 39 30 22 18 15 13 11
174 120 199 241 221 244 260 236 232 242 236 195 189 191 195 191 178 175 176 175 182 190 188 184 194 197 185 175 175 179 180 183 188 191 194 197 198 198 198 199 200 201 202 201 201 201 200 199 197 194 190 186 182 180 178 176 173 170 166 165 166 164 164 165 166 166 166 166 168 169 168 168 166 166 165 162 160 158 155 148 143 135 119 105 82 68 55 44 34 27 23 17 11 7 3 4 3
328 147 197 252 244 257 275 271 273 265 239 212 191 182 195 190 179 180 171 159 221 219 199 194 196 189 179 175 178 182 183 186 190 194 198 200 201 202 204 205 204 204 204 204 205 204 203 203 201 200 198 195 192 190 187 183 181 179 175 173 173 174 175 175 176 177 175 176 179 181 183 182 181 179 178 178 177 177 175 178 179 178 182 180 13 19 17 12 7 4 2 359 355 352 350 350 351
330 261 257 288 300 259 288 296 304 279 224 202 180 176 190 182 182 187 178 174 220 217 207 205 202 192 187 183 180 184 187 189 193 197 201 203 204 204 207 208 208 207 206 207 208 206 206 206 205 204 204 202 199 199 197 195 193 189 187 184 182 181 182 184 186 187 187 189 191 193 195 197 197 195 194 192 196 201 202 211 218 229 252 264 284 308 323 328 335 338 341 339 338 338 336 336 336
24 285 313 308 302 265 285 297 303 285 203 188 183 189 182 171 194 198 192 202 214 217 213 208 206 202 201 192 184 186 190 193 197 201 204 205 206 207 208 209 210 210 210 211 211 209 209 209 208 208 208 207 205 205 205 206 203 200 199 198 197 195 194 193 192 195 197 199 204 207 207 209 215 217 214 211 212 217 223 232 239 253 266 276 283 293 303 308 314 319 322 322 321 323 324 323 324
90 255 325 324 317 289 284 289 291 281 223 207 193 188 180 178 199 200 206 214 214 226 217 208 207 202 200 194 189 191 195 198 202 205 207 209 209 210 211 212 214 214 215 215 213 211 211 211 211 211 211 212 210 208 210 212 211 209 208 208 209 209 209 207 204 206 207 207 211 217 220 222 228 233 233 230 228 228 234 242 249 258 269 275 282 291 296 299 302 306 309 310 310 312 313 313 314
78 287 328 330 320 307 296 286 285 279 234 214 191 189 191 192 194 205 218 216 212 228 216 206 206 201 199 198 196 196 197 201 204 206 209 211 212 213 213 214 215 216 218 217 215 214 213 213 214 215 214 214 214 213 215 215 216 217 216 214 214 217 219 219 219 220 218 217 217 222 228 231 235 241 244 243 242 240 241 247 255 261 268 273 279 286 290 292 293 297 301 303 304 305 305 305 305
38 342 328 323 314 311 303 281 279 271 223 199 193 200 195 197 206 243 232 219 211 222 214 207 206 203 201 201 201 199 199 201 203 206 209 211 212 214 214 215 216 217 217 217 218 216 215 216 217 218 217 215 216 217 219 220 220 222 223 221 220 223 224 227 230 230 230 229 226 227 232 236 238 241 245 248 248 247 248 251 257 260 265 272 277 279 281 284 287 291 293 295 297 300 302 300 302
337 346 331 317 312 306 291 272 267 248 216 202 198 193 184 193 196 249 240 221 212 218 216 209 207 208 205 204 205 204 204 204 205 207 208 211 213 215 216 216 217 218 217 217 218 218 217 219 220 220 220 218 218 220 221 222 224 225 226 225 224 226 227 230 236 240 242 242 240 238 239 243 245 245 246 249 249 249 253 255 258 262 265 268 271 271 273 276 279 283 284 287 289 291 294 295 299
320 347 333 314 316 301 267 258 245 216 218 210 191 146 195 171 214 240 233 213 212 216 215 211 208 210 209 207 207 207 209 208 207 208 209 212 214 215 217 217 218 218 218 218 218 218 218 220 222 222 222 221 221 223 224 224 226 227 228 229 230 231 234 236 240 245 249 251 251 248 245 246 249 252 252 254 254 252 255 257 258 261 262 264 265 265 266 269 271 275 277 279 281 282 284 285 287
319 347 334 308 321 304 255 246 224 201 211 200 164 124 269 218 232 234 226 209 210 214 216 213 210 211 211 210 210 211 212 210 208 210 213 216 216 217 218 219 220 220 220 220 220 219 220 221 223 224 224 224 224 226 227 228 229 230 231 233 235 238 240 242 244 246 251 252 252 252 250 247 248 250 251 254 255 254 256 258 260 263 262 263 264 263 263 265 267 270 273 274 276 277 278 278 279
312 340 334 303 325 309 249 231 203 189 189 176 152 205 259 239 235 229 221 214 208 208 212 211 210 211 211 211 212 214 214 212 212 214 217 218 220 221 221 221 221 222 222 221 221 222 221 223 224 225 226 226 227 228 229 230 231 232 234 236 238 241 243 245 247 247 247 247 248 250 249 248 247 247 248 252 253 255 256 257 259 260 260 261 261 262 262 262 264 267 270 274 277 279 279 279 278
3 334 306 296 299 288 277 231 176 171 201 176 150 224 251 245 245 232 224 220 209 207 209 210 211 211 212 213 215 217 216 216 217 219 219 220 222 223 224 223 223 223 223 221 222 223 223 225 226 226 226 227 228 229 229 230 231 233 234 236 237 240 243 245 245 245 244 244 245 246 248 249 248 247 248 251 254 257 259 260 261 260 261 261 261 261 261 261 264 269 275 277 277 277 280 283 283
50 317 286 315 209 269 303 259 188 176 197 175 149 221 255 262 259 239 225 219 210 208 209 209 211 212 214 216 218 220 220 220 221 222 222 222 222 223 224 224 224 223 222 222 222 223 224 226 227 228 227 227 227 228 230 230 231 232 233 235 236 238 241 242 242 243 243 243 244 245 247 249 250 251 251 253 255 258 261 264 265 265 265 265 265 266 267 269 271 272 274 277 278 276 278 281 283
59 160 245 287 261 271 305 276 218 198 143 175 178 219 261 269 262 239 217 213 209 209 211 211 212 214 216 217 220 222 223 223 223 223 223 223 223 223 222 223 224 224 224 224 222 223 224 225 227 228 228 227 227 228 230 230 231 232 234 236 236 237 238 239 240 242 243 244 246 248 250 251 254 256 258 261 262 263 265 267 269 270 272 275 277 277 278 279 279 279 276 275 277 279 282 285 285
201 150 219 258 251 242 272 290 240 204 138 199 208 227 245 255 269 260 211 207 206 210 216 216 214 215 217 219 222 224 225 226 226 226 225 225 225 222 221 222 223 224 226 225 225 225 225 226 226 227 228 227 227 229 230 232 234 236 239 240 240 241 240 241 241 242 244 247 250 253 256 258 260 261 262 264 267 269 271 272 274 275 276 279 283 285 288 288 289 291 287 281 281 285 289 293 292
163 160 184 246 245 229 241 276 219 174 154 208 196 227 250 259 271 271 227 206 206 213 219 220 221 219 220 222 223 226 228 229 231 230 229 228 227 225 222 221 221 223 225 225 225 225 225 225 225 225 225 223 224 227 229 232 235 238 241 242 242 242 242 243 243 243 245 248 252 255 258 261 263 265 264 264 267 270 270 271 272 272 273 274 278 281 283 284 287 290 288 287 291 294 295 297 297
142 160 185 226 240 242 237 256 236 181 167 211 199 218 242 250 257 254 234 213 211 220 226 225 227 226 223 224 226 228 230 233 235 233 231 230 229 228 225 223 222 223 224 225 225 224 224 222 223 223 223 222 222 224 227 228 231 233 236 238 238 238 240 242 243 244 246 249 252 255 258 259 261 263 263 264 266 269 272 274 274 275 275 272 271 275 281 285 286 291 293 290 288 287 290 297 300
135 134 231 251 247 267 257 259 292 235 183 222 208 214 238 242 253 248 216 209 214 225 234 231 229 230 228 226 227 231 233 238 240 235 232 231 230 229 227 226 225 224 223 224 225 225 224 223 224 224 223 223 224 223 224 225 226 228 231 232 234 235 238 241 242 243 246 250 254 257 260 261 263 264 263 262 263 268 274 277 278 277 278 277 277 282 289 294 291 293 298 295 287 285 289 297 303
114 101 280 277 247 263 265 245 310 331 195 246 219 216 247 246 255 252 193 191 214 220 226 230 228 228 230 230 230 233 237 241 241 238 235 232 231 229 228 228 226 226 224 223 224 224 225 225 226 226 225 226 226 226 226 227 228 227 230 233 235 239 240 242 244 246 250 253 256 259 262 263 263 262 262 261 260 264 268 272 275 275 274 274 277 280 280 282 282 285 292 298 297 291 289 290 302
135 116 288 282 250 275 279 255 287 21 188 269 241 211 253 254 255 251 201 208 231 227 225 229 229 227 229 232 234 236 238 241 242 241 238 235 234 231 229 229 228 228 227 226 226 225 225 226 227 227 227 228 228 229 230 231 232 232 234 237 239 242 243 245 249 251 252 252 252 252 253 256 257 255 256 258 257 260 263 268 274 278 279 273 273 281 280 278 281 283 290 302 302 293 288 283 291
177 169 225 259 260 275 280 296 328 342 161 249 169 214 262 266 265 262 225 224 240 243 237 236 237 235 234 234 236 239 240 242 243 243 241 238 235 233 231 230 229 229 228 227 227 226 227 226 227 227 227 229 229 230 232 234 236 238 240 241 242 243 243 244 245 245 244 242 242 243 245 250 254 255 255 258 260 261 260 262 265 269 274 274 276 283 284 283 285 286 286 294 298 294 292 289 291
206 204 205 236 258 241 249 309 334 324 345 115 98 320 284 257 259 269 240 225 238 247 245 243 243 241 242 241 241 243 243 244 246 247 246 242 237 234 232 231 230 231 229 227 226 226 228 228 228 228 229 230 230 231 232 235 237 239 239 240 241 239 237 236 236 235 235 236 239 244 248 251 255 258 257 257 258 259 259 258 259 261 267 278 282 277 273 276 284 286 285 288 293 295 293 291 293
218 216 206 223 252 268 273 304 346 329 302 257 152 271 276 282 264 256 247 223 235 243 240 241 242 241 243 244 244 244 245 246 247 249 249 247 243 238 235 233 231 231 230 228 228 228 229 230 230 230 231 231 232 232 233 234 236 237 237 236 235 233 231 230 232 233 235 239 247 250 250 251 252 253 252 252 255 257 258 257 258 265 271 277 277 272 273 284 290 292 292 290 288 289 286 285 289
224 201 183 214 257 293 282 278 229 245 271 273 199 207 259 308 272 244 250 250 247 244 239 242 244 242 242 243 245 244 244 246 247 248 248 248 246 242 237 235 233 232 231 230 229 230 230 231 232 232 232 232 233 233 234 235 236 237 237 237 236 235 234 234 236 240 243 247 252 252 247 246 246 248 251 255 258 257 258 259 260 264 265 262 264 270 280 286 288 286 286 286 282 279 278 280 286
217 157 158 194 250 288 275 242 214 236 271 292 292 187 249 278 253 256 288 272 269 263 254 253 248 244 243 243 245 246 247 248 247 246 246 246 245 243 240 238 238 237 235 232 230 229 230 231 232 233 233 234 234 234 234 235 236 236 237 237 238 238 239 241 243 246 249 249 250 251 249 247 246 250 255 258 261 262 261 260 259 262 264 264 263 264 268 271 270 269 271 274 275 275 275 277 285
230 174 155 166 152 224 287 233 237 278 321 271 266 167 228 262 268 308 356 248 263 265 253 251 248 245 244 244 245 246 248 248 247 245 244 243 243 242 242 242 242 243 241 237 234 231 230 230 232 233 233 233 233 233 234 235 236 237 238 239 239 240 241 243 245 245 245 244 245 247 247 248 249 253 259 260 263 267 268 264 259 259 260 261 262 259 255 255 257 260 261 261 266 271 272 272 278
215 149 106 78 85 77 56 204 240 320 259 244 237 196 221 261 275 295 324 242 245 259 256 247 248 247 246 246 247 248 248 248 247 245 243 242 242 242 244 245 244 243 243 242 238 234 231 231 231 232 232 232 232 233 234 234 236 237 238 240 240 240 242 243 244 243 242 241 242 242 243 246 249 254 258 262 263 263 264 260 251 252 253 254 259 261 260 259 260 261 260 260 262 265 268 270 272
152 113 105 83 56 45 43 67 105 273 251 245 234 212 213 259 271 228 219 225 213 233 253 252 252 253 252 251 251 252 251 251 249 247 245 243 242 242 241 243 242 241 240 240 239 235 232 231 231 232 232 232 232 233 234 235 236 237 238 239 240 240 242 243 244 244 243 243 242 243 245 248 250 253 256 258 257 255 254 251 244 247 254 259 264 267 268 269 269 267 267 265 262 261 264 269 272
160 120 132 129 153 11 6 352 63 224 246 257 238 196 186 233 260 228 235 250 222 220 238 250 256 262 268 267 264 263 260 259 254 250 248 245 243 241 239 239 239 239 237 237 238 236 233 232 232 232 232 232 233 233 234 235 236 237 238 239 240 241 242 243 245 245 245 245 246 247 248 250 251 253 254 252 249 246 244 244 245 250 256 261 266 270 271 273 274 274 272 269 265 263 263 263 267
181 170 147 148 176 135 233 240 229 230 249 290 241 175 207 233 252 256 262 268 251 232 231 243 256 268 280 284 287 286 276 266 259 252 249 246 244 242 239 239 239 238 237 236 238 237 235 233 232 232 231 232 233 234 234 235 235 236 237 238 239 240 242 243 244 245 245 246 246 247 247 249 251 251 248 244 241 238 235 236 242 249 255 259 264 267 269 274 277 277 276 274 270 267 266 266 267
187 182 164 166 158 166 206 217 258 253 259 284 242 246 262 270 263 242 244 252 253 248 244 253 263 272 280 284 286 291 285 271 261 254 249 245 244 242 240 240 240 239 238 237 237 237 235 234 232 232 232 232 233 234 234 234 234 235 235 238 239 241 241 242 243 243 243 243 243 243 245 245 246 244 239 234 232 230 231 236 242 247 254 259 264 268 272 277 279 280 282 281 279 276 276 277 275
193 169 144 177 175 172 195 199 221 245 271 275 258 230 212 209 260 240 240 261 269 270 265 264 267 273 280 280 276 278 284 279 263 254 250 245 243 242 240 239 239 239 238 237 236 235 234 233 233 233 234 234 233 233 234 233 234 234 235 237 238 239 240 241 242 242 240 239 239 239 241 240 239 236 231 227 226 228 230 235 240 247 253 257 262 266 270 276 277 278 280 281 283 283 282 281 281
197 146 151 201 191 161 164 194 189 192 285 271 236 232 214 209 281 280 273 281 277 271 269 266 266 272 277 272 265 263 272 279 268 257 251 246 242 239 239 238 238 238 236 235 234 232 232 232 233 235 236 236 236 235 234 234 234 235 235 236 237 237 238 238 238 237 235 235 236 237 236 235 233 229 225 223 222 226 231 234 240 245 248 252 257 260 264 270 272 275 277 278 281 283 286 293 300
157 161 195 210 164 154 184 257 36 63 259 262 210 255 292 317 292 299 318 301 282 273 270 265 266 274 274 266 258 250 256 266 265 258 250 244 241 238 238 237 237 237 236 235 233 231 231 232 233 235 236 236 237 237 236 235 235 235 235 235 235 236 236 235 234 232 231 231 231 232 230 228 227 223 220 219 219 224 228 232 236 239 242 247 252 256 259 264 269 273 273 275 285 295 314 346 5
153 191 192 129 90 139 145 241 294 241 243 270 358 249 288 306 278 315 339 305 280 276 275 269 270 271 269 268 261 247 245 248 250 250 244 240 238 237 238 238 238 238 236 234 232 230 230 231 233 235 236 237 238 238 238 236 236 236 236 235 234 233 233 232 231 229 228 227 226 225 224 223 220 217 215 215 218 223 225 229 231 234 241 245 247 251 253 257 263 266 253 228 201 123 99 77 70
157 183 168 143 176 197 154 194 214 215 237 274 314 287 269 215 229 299 307 282 267 271 279 282 269 257 256 265 265 250 240 238 240 243 242 241 240 239 240 240 240 239 237 235 232 230 230 230 232 234 236 238 240 240 239 237 236 236 235 234 231 230 229 227 226 225 224 222 221 220 219 217 213 211 212 214 218 222 223 225 227 230 236 239 245 247 240 239 229 212 183 160 150 136 119 100 81
47 108 162 166 185 192 185 177 182 198 230 266 305 311 271 225 210 228 253 260 260 263 273 277 268 262 261 264 265 255 243 239 241 244 247 249 247 246 244 243 243 241 239 237 234 232 231 231 233 234 235 236 235 237 237 235 234 232 230 228 227 226 224 223 221 219 218 216 215 214 212 209 207 208 212 215 218 220 220 221 222 226 231 231 234 227 219 218 207 194 181 170 153 120 95 58 28
119 144 175 193 178 153 202 203 162 158 195 219 282 287 261 243 211 197 221 243 248 249 260 265 271 276 275 269 265 258 248 243 245 247 251 251 249 248 246 244 243 241 239 236 233 232 230 230 230 231 233 232 231 232 232 232 230 226 224 223 222 221 218 217 215 212 211 209 207 206 204 204 207 210 214 215 216 215 214 216 218 220 223 221 219 214 209 208 202 195 183 170 156 133 52 338 339
173 178 186 186 176 150 200 229 216 95 201 192 212 269 262 245 217 207 222 240 251 268 268 269 279 283 283 279 270 258 248 245 249 251 251 250 247 247 245 242 241 239 237 234 231 230 229 227 227 228 229 229 228 228 225 225 224 222 221 219 217 215 211 209 206 203 201 200 199 200 201 204 208 211 213 212 210 209 210 213 214 213 213 212 212 208 204 201 193 187 180 175 181 199 256 298 311